CAPE
0 33 635 814 795 946 983 811 620 618 754 833 898 932 728 637 634 572 564 536 638 588 502 271 204 144 181 233 95 44 54 0 0 0 0 0 0 9 734 507 332 220 256
0 62 428 678 891 821 869 788 719 859 860 786 812 700 538 371 316 295 156 147 202 217 144 49 2 2 4 19 91 144 89 1 0 0 0 0 0 459 709 494 522 538 561
0 75 354 537 787 944 794 834 833 827 814 763 578 437 250 123 87 20 7 11 37 60 13 1 3 1 0 3 0 3 4 2 0 0 0 0 0 122 256 42 44 257 249
0 16 165 415 508 820 814 626 659 805 632 382 164 42 5 42 28 4 2 0 0 2 4 0 0 0 0 0 1 1 1 0 0 0 0 0 0 0 147 132 22 0 0
0 0 14 217 365 376 364 294 182 268 158 88 3 1 6 4 2 0 0 0 0 0 0 0 0 0 0 0 0 0 0 0 0 0 0 0 0 0 38 231 0 0 0
0 0 0 16 146 190 114 83 6 0 3 5 2 1 4 1 0 0 0 0 0 0 0 0 0 0 0 0 0 0 0 0 0 0 0 0 0 0 0 47 60 0 0
0 0 0 0 4 15 0 0 0 2 0 6 5 1 0 0 0 0 0 0 0 0 0 0 0 0 0 0 0 0 0 0 0 0 0 0 0 0 12 44 61 27 0
0 0 0 0 3 2 1 0 4 3 5 0 0 0 0 0 0 0 0 0 0 0 0 0 0 0 0 0 0 0 0 0 0 0 0 0 0 0 0 0 2 81 39
0 0 0 0 0 0 1 1 1 2 0 0 0 0 0 0 0 0 0 0 0 0 0 0 0 0 0 0 0 0 0 0 0 0 0 0 0 0 0 0 0 0 0
0 0 0 0 0 0 0 0 0 0 0 0 0 0 0 0 0 0 0 0 0 0 0 0 0 0 0 0 0 0 0 0 0 0 0 0 0 0 0 0 0 0 0
0 0 0 0 0 0 0 0 0 0 0 0 0 0 0 0 0 0 0 0 0 0 0 0 0 0 0 0 0 0 0 0 0 0 0 0 0 0 0 0 0 0 0
0 0 0 0 0 0 0 0 0 0 0 0 0 0 0 0 0 0 0 0 0 0 0 0 0 0 0 0 0 0 0 0 0 0 0 0 0 0 0 0 0 0 0
0 0 0 0 0 0 0 0 0 0 0 0 0 0 0 0 0 0 0 0 0 0 0 0 0 0 0 0 0 0 0 0 0 0 0 0 0 0 0 0 0 0 0
0 0 0 0 0 0 0 0 0 0 0 0 0 0 0 0 0 0 0 0 0 0 0 0 0 0 0 0 0 0 0 0 0 0 0 0 0 0 0 0 0 0 0
0 0 0 0 0 0 0 0 0 0 0 0 0 0 0 0 0 0 0 0 0 0 0 0 0 0 0 0 0 0 0 0 0 0 0 0 0 0 0 0 0 0 0
0 0 0 0 0 0 0 0 0 0 0 0 0 0 0 0 0 0 0 0 0 0 0 0 0 0 0 0 0 0 0 0 0 0 0 0 0 0 0 0 0 0 0
0 0 0 0 0 0 0 0 0 0 0 0 0 0 0 0 0 0 0 0 0 0 0 0 0 0 0 0 0 0 0 0 0 0 0 0 0 0 0 0 0 0 0
0 0 0 0 0 0 0 0 0 0 0 0 0 0 0 0 0 0 0 0 0 0 0 0 0 0 0 0 0 0 0 0 0 0 0 0 0 0 0 0 0 0 0
0 0 0 0 0 0 0 0 0 0 0 0 0 0 0 0 0 0 0 0 0 0 0 0 0 0 0 0 0 0 0 0 0 0 0 0 0 0 0 0 0 0 0
0 0 0 0 0 0 0 0 0 0 0 0 0 0 0 0 0 0 0 0 0 0 0 0 0 0 0 0 0 0 0 0 0 0 0 0 0 0 0 0 0 0 0
0 0 0 0 0 0 0 0 0 0 0 0 0 0 0 0 0 0 0 0 0 0 0 0 0 0 0 0 0 0 0 0 0 0 0 0 0 0 0 0 0 0 0
0 0 0 0 0 0 0 0 0 0 0 0 0 0 0 0 0 0 0 0 0 0 0 0 0 0 0 0 0 0 0 0 0 0 0 0 0 0 0 0 0 0 0
0 0 0 0 0 0 0 0 0 0 0 0 0 0 0 0 0 0 0 0 0 0 0 0 0 0 0 0 0 0 0 0 0 0 0 0 0 0 0 0 0 0 0
0 0 0 0 0 0 0 0 0 0 0 0 0 0 0 0 0 0 0 0 0 0 0 0 0 0 0 0 0 0 0 0 0 0 0 0 0 0 0 0 0 0 0
0 0 0 0 0 0 0 0 0 0 0 0 0 0 0 0 0 0 0 0 0 0 0 0 0 0 0 0 0 0 0 0 0 0 0 0 0 0 0 0 0 0 0
0 0 0 0 0 0 0 0 0 0 0 0 0 0 0 0 0 0 0 0 0 0 0 0 0 0 0 0 0 0 0 0 0 0 0 0 0 0 0 0 0 0 0
CIN
-0 -384 -155 -70 -48 -6 -2 -8 -32 -27 -1 -0 -0 -0 -0 -0 -0 -0 -0 -1 -1 -1 -0 -6 -12 -19 -14 -2 -26 -58 -51 -13 -0 -0 -0 -0 -0 -57 -1 -6 -8 -18 -14
-0 -540 -251 -130 -41 -36 -14 -10 -12 -0 -1 -1 -0 -6 -15 -24 -25 -17 -57 -36 -31 -36 -48 -127 -17 -1 -8 -122 -57 -37 -42 -0 -0 -0 -0 -0 -0 -3 -1 -5 -3 -1 -0
-0 -509 -291 -185 -82 -30 -37 -18 -18 -6 -7 -8 -25 -39 -82 -151 -176 -254 -211 -193 -186 -171 -145 -0 -0 -0 -0 -0 -0 -2 -0 -0 -0 -0 -0 -0 -0 -10 -5 -48 -31 -16 -19
-0 -484 -389 -226 -173 -61 -43 -79 -58 -23 -53 -117 -186 -254 -362 -277 -308 -1 -0 -0 -0 -0 -1 -0 -0 -0 -0 -0 -0 -0 -0 -0 -0 -0 -0 -0 -0 -0 -38 -34 -87 -0 -0
-0 -0 -537 -301 -208 -188 -178 -184 -243 -192 -245 -289 -41 -0 -1 -1 -0 -0 -0 -0 -0 -0 -0 -0 -0 -0 -0 -0 -0 -0 -0 -0 -0 -0 -0 -0 -0 -0 -74 -47 -0 -0 -0
-0 -0 -0 -478 -301 -262 -296 -300 -397 -11 -11 -6 -1 -0 -0 -0 -0 -0 -0 -0 -0 -0 -0 -0 -0 -0 -0 -0 -0 -0 -0 -0 -0 -0 -0 -0 -0 -0 -0 -110 -107 -0 -0
-0 -0 -0 -0 -0 -429 -0 -0 -0 -0 -0 -0 -0 -0 -0 -0 -0 -0 -0 -0 -0 -0 -0 -0 -0 -0 -0 -0 -0 -0 -0 -0 -0 -0 -0 -0 -0 -0 -150 -159 -147 -64 -0
-0 -0 -0 -0 -0 -0 -0 -0 -0 -0 -0 -0 -0 -0 -0 -0 -0 -0 -0 -0 -0 -0 -0 -0 -0 -0 -0 -0 -0 -0 -0 -0 -0 -0 -0 -0 -0 -0 -0 -0 -3 -187 -103
-0 -0 -0 -0 -0 -0 -0 -0 -0 -0 -0 -0 -0 -0 -0 -0 -0 -0 -0 -0 -0 -0 -0 -0 -0 -0 -0 -0 -0 -0 -0 -0 -0 -0 -0 -0 -0 -0 -0 -0 -0 -0 -2
-0 -0 -0 -0 -0 -0 -0 -0 -0 -0 -0 -0 -0 -0 -0 -0 -0 -0 -0 -0 -0 -0 -0 -0 -0 -0 -0 -0 -0 -0 -0 -0 -0 -0 -0 -0 -0 -0 -0 -0 -0 -0 -0
-0 -0 -0 -0 -0 -0 -0 -0 -0 -0 -0 -0 -0 -0 -0 -0 -0 -0 -0 -0 -0 -0 -0 -0 -0 -0 -0 -0 -0 -0 -0 -0 -0 -0 -0 -0 -0 -0 -0 -0 -0 -0 -0
-0 -0 -0 -0 -0 -0 -0 -0 -0 -0 -0 -0 -0 -0 -0 -0 -0 -0 -0 -0 -0 -0 -0 -0 -0 -0 -0 -0 -0 -0 -0 -0 -0 -0 -0 -0 -0 -0 -0 -0 -0 -0 -0
-0 -0 -0 -0 -0 -0 -0 -0 -0 -0 -0 -0 -0 -0 -0 -0 -0 -0 -0 -0 -0 -0 -0 -0 -0 -0 -0 -0 -0 -0 -0 -0 -0 -0 -0 -0 -0 -0 -0 -0 -0 -0 -0
-0 -0 -0 -0 -0 -0 -0 -0 -0 -0 -0 -0 -0 -0 -0 -0 -0 -0 -0 -0 -0 -0 -0 -0 -0 -0 -0 -0 -0 -0 -0 -0 -0 -0 -0 -0 -0 -0 -0 -0 -0 -0 -0
-0 -0 -0 -0 -0 -0 -0 -0 -0 -0 -0 -0 -0 -0 -0 -0 -0 -0 -0 -0 -0 -0 -0 -0 -0 -0 -0 -0 -0 -0 -0 -0 -0 -0 -0 -0 -0 -0 -0 -0 -0 -0 -0
-0 -0 -0 -0 -0 -0 -0 -0 -0 -0 -0 -0 -0 -0 -0 -0 -0 -0 -0 -0 -0 -0 -0 -0 -0 -0 -0 -0 -0 -0 -0 -0 -0 -0 -0 -0 -0 -0 -0 -0 -0 -0 -0
-0 -0 -0 -0 -0 -0 -0 -0 -0 -0 -0 -0 -0 -0 -0 -0 -0 -0 -0 -0 -0 -0 -0 -0 -0 -0 -0 -0 -0 -0 -0 -0 -0 -0 -0 -0 -0 -0 -0 -0 -0 -0 -0
-0 -0 -0 -0 -0 -0 -0 -0 -0 -0 -0 -0 -0 -0 -0 -0 -0 -0 -0 -0 -0 -0 -0 -0 -0 -0 -0 -0 -0 -0 -0 -0 -0 -0 -0 -0 -0 -0 -0 -0 -0 -0 -0
-0 -0 -0 -0 -0 -0 -0 -0 -0 -0 -0 -0 -0 -0 -0 -0 -0 -0 -0 -0 -0 -0 -0 -0 -0 -0 -0 -0 -0 -0 -0 -0 -0 -0 -0 -0 -0 -0 -0 -0 -0 -0 -0
-0 -0 -0 -0 -0 -0 -0 -0 -0 -0 -0 -0 -0 -0 -0 -0 -0 -0 -0 -0 -0 -0 -0 -0 -0 -0 -0 -0 -0 -0 -0 -0 -0 -0 -0 -0 -0 -0 -0 -0 -0 -0 -0
-0 -0 -0 -0 -0 -0 -0 -0 -0 -0 -0 -0 -0 -0 -0 -0 -0 -0 -0 -0 -0 -0 -0 -0 -0 -0 -0 -0 -0 -0 -0 -0 -0 -0 -0 -0 -0 -0 -0 -0 -0 -0 -0
-0 -0 -0 -0 -0 -0 -0 -0 -0 -0 -0 -0 -0 -0 -0 -0 -0 -0 -0 -0 -0 -0 -0 -0 -0 -0 -0 -0 -0 -0 -0 -0 -0 -0 -0 -0 -0 -0 -0 -0 -0 -0 -0
-0 -0 -0 -0 -0 -0 -0 -0 -0 -0 -0 -0 -0 -0 -0 -0 -0 -0 -0 -0 -0 -0 -0 -0 -0 -0 -0 -0 -0 -0 -0 -0 -0 -0 -0 -0 -0 -0 -0 -0 -0 -0 -0
-0 -0 -0 -0 -0 -0 -0 -0 -0 -0 -0 -0 -0 -0 -0 -0 -0 -0 -0 -0 -0 -0 -0 -0 -0 -0 -0 -0 -0 -0 -0 -0 -0 -0 -0 -0 -0 -0 -0 -0 -0 -0 -0
-0 -0 -0 -0 -0 -0 -0 -0 -0 -0 -0 -0 -0 -0 -0 -0 -0 -0 -0 -0 -0 -0 -0 -0 -0 -0 -0 -0 -0 -0 -0 -0 -0 -0 -0 -0 -0 -0 -0 -0 -0 -0 -0
-0 -0 -0 -0 -0 -0 -0 -0 -0 -0 -0 -0 -0 -0 -0 -0 -0 -0 -0 -0 -0 -0 -0 -0 -0 -0 -0 -0 -0 -0 -0 -0 -0 -0 -0 -0 -0 -0 -0 -0 -0 -0 -0
Wind_Speed
20 19 20 20 22 22 24 24 24 24 22 21 20 19 15 13 12 12 13 13 14 14 14 14 15 15 16 16 16 16 17 18 19 19 19 19 19 19 17 17 18 18 18
18 17 18 18 18 21 21 22 23 23 22 21 19 14 9 11 12 11 12 13 13 14 14 15 16 16 16 16 17 17 17 18 20 20 20 19 19 18 16 17 18 18 19
15 14 14 16 15 16 16 17 18 19 18 17 12 10 9 10 11 11 12 12 13 13 14 15 16 16 17 17 17 18 19 19 19 20 20 19 19 19 17 18 18 19 20
12 12 12 12 12 12 14 14 13 13 11 10 9 9 10 11 11 12 12 13 13 13 14 15 16 17 17 17 18 18 19 20 20 20 20 20 20 20 19 18 19 20 20
8 9 10 9 9 9 8 9 8 8 8 8 8 8 8 10 10 11 11 12 12 13 14 15 16 17 18 19 19 20 20 21 21 21 20 20 21 21 22 19 19 20 21
7 5 6 8 9 8 6 6 6 5 6 6 8 8 8 8 9 10 11 12 12 13 14 15 16 17 17 18 19 20 21 21 21 22 21 22 22 22 22 22 17 18 20
9 6 3 4 6 6 4 5 3 5 6 5 6 6 7 8 8 9 10 10 11 13 14 15 16 16 17 17 18 20 20 21 21 21 21 21 23 22 22 22 23 17 20
11 8 5 3 2 2 3 3 3 4 3 3 4 5 6 7 8 9 10 10 12 13 13 14 15 16 17 18 19 19 20 20 21 21 21 22 23 22 22 23 23 23 20
10 10 9 6 3 1 1 1 2 1 1 2 4 5 6 7 8 9 10 10 11 12 13 14 16 16 17 19 19 20 20 21 21 21 22 22 23 22 22 23 23 23 23
9 10 9 8 7 5 2 2 1 1 2 2 3 4 6 7 8 9 10 10 12 13 14 15 17 17 18 19 20 21 21 22 22 23 23 24 24 24 23 23 23 23 24
7 8 7 8 8 6 4 3 2 2 3 4 5 5 7 8 8 9 10 10 12 13 14 16 17 18 19 19 20 21 22 22 23 23 23 25 25 24 24 23 23 23 24
8 10 8 8 8 6 4 4 3 3 4 5 5 7 8 9 9 10 10 11 12 14 15 16 17 18 19 20 21 22 23 24 24 24 24 26 26 25 24 23 23 23 24
8 7 10 9 9 8 7 6 6 5 5 5 5 6 7 8 9 9 10 11 12 14 15 16 18 18 19 20 21 23 23 24 25 25 26 27 26 26 24 23 23 23 23
9 10 10 10 10 10 8 8 8 8 8 7 6 6 7 7 8 9 10 11 12 14 15 17 18 19 20 21 22 23 24 25 25 26 27 27 26 26 25 24 23 22 22
12 12 12 12 12 12 12 11 11 10 10 9 9 8 7 7 7 8 9 10 12 13 15 16 18 20 21 22 23 24 25 25 26 27 27 26 25 24 24 23 22 22 22
15 15 14 15 15 14 15 14 14 13 12 11 11 10 9 9 8 8 9 10 11 13 14 17 18 20 22 23 24 25 26 27 27 27 26 25 25 23 22 22 22 22 22
17 17 17 17 17 17 17 16 16 15 14 13 12 12 12 11 10 9 9 10 11 13 14 16 18 20 22 24 26 27 27 28 28 26 25 24 23 23 23 23 22 22 23
17 18 18 18 19 19 19 18 18 17 16 15 14 14 13 13 11 10 9 10 11 13 14 17 19 21 23 25 27 28 28 28 26 24 22 23 23 22 23 22 22 22 23
19 19 19 19 20 20 19 19 19 19 18 17 16 15 15 14 12 11 11 12 12 14 16 18 21 22 25 26 28 28 29 27 25 22 21 22 22 21 21 21 23 24 25
20 20 19 19 19 19 19 19 20 20 19 18 18 17 16 15 14 13 12 12 12 14 16 18 20 22 24 27 28 28 27 25 20 21 21 22 19 21 21 22 25 27 29
20 20 20 21 20 19 20 20 21 21 20 20 20 19 17 16 15 13 12 12 13 14 16 17 20 22 25 27 27 28 26 22 18 20 21 17 20 22 22 26 29 30 30
20 19 19 19 19 20 20 20 20 19 20 20 20 18 17 17 15 14 13 13 13 15 16 17 20 22 24 26 26 26 27 24 21 21 20 18 23 23 28 30 30 30 31
20 18 18 17 18 19 19 17 18 18 20 20 20 21 20 18 16 14 14 14 14 14 15 16 17 19 22 24 24 24 26 24 25 23 20 23 23 30 28 29 31 31 31
21 19 18 18 18 18 18 19 20 21 22 21 20 20 19 17 16 15 15 14 14 15 16 15 15 18 19 21 22 22 22 22 24 27 23 24 26 31 31 30 31 32 30
24 19 17 15 16 17 18 20 20 21 22 20 19 19 19 18 17 16 15 15 16 17 17 16 15 17 19 19 20 20 21 22 22 24 30 28 31 25 29 32 31 29 29
22 17 15 15 16 16 17 19 20 21 20 19 19 20 19 18 17 17 16 16 15 17 17 17 17 17 18 19 19 19 20 23 23 24 29 30 32 28 35 30 28 30 28
Wind_Direction
143 132 135 135 143 145 149 157 158 158 149 136 124 122 92 65 34 12 7 7 11 9 7 353 349 342 342 338 335 330 328 323 317 317 317 323 315 313 326 338 335 336 339
125 128 130 128 131 142 144 148 155 151 139 141 125 87 12 42 55 26 358 352 357 8 7 3 355 342 338 335 337 344 343 334 324 320 321 324 330 334 349 338 333 334 336
121 121 121 125 115 120 123 125 125 128 123 112 73 43 20 340 340 339 333 340 348 353 355 354 351 345 342 342 336 336 334 332 328 327 329 331 329 331 347 348 344 340 337
110 118 120 118 116 110 113 110 109 107 86 67 41 11 351 332 335 333 326 315 321 335 336 335 338 332 332 336 335 333 331 326 321 324 327 322 323 324 336 343 342 338 336
109 116 123 120 119 114 105 101 91 85 71 52 30 31 19 359 353 352 355 351 347 344 344 336 335 330 326 323 326 323 321 317 314 310 313 314 315 321 311 336 341 341 337
109 112 119 125 130 124 116 108 96 89 89 71 72 62 48 37 30 14 3 357 356 352 347 346 344 341 337 335 334 328 323 322 316 314 313 311 310 310 314 314 348 347 346
122 118 118 125 132 129 124 125 98 109 107 87 69 55 43 37 31 26 13 9 5 359 355 353 353 351 347 343 338 333 331 329 325 319 319 316 306 307 315 317 311 340 336
130 126 124 129 136 129 130 128 121 118 83 55 34 27 23 21 17 14 5 2 1 0 1 1 359 355 349 344 340 334 334 331 329 322 318 308 306 316 316 315 317 315 328
129 135 137 136 139 155 210 163 154 121 85 18 356 356 2 360 356 353 353 356 354 353 353 352 350 349 346 339 335 334 335 332 332 327 322 313 308 319 323 321 316 316 324
136 146 149 149 150 151 159 165 185 216 305 336 344 342 344 347 350 348 343 346 342 342 342 341 341 340 339 335 331 329 329 326 328 324 321 314 314 317 318 322 322 319 320
160 166 164 164 164 163 165 172 195 257 286 301 309 317 323 327 338 344 341 342 341 341 338 338 337 335 335 333 330 327 327 327 326 325 324 318 318 319 320 320 320 319 319
191 187 184 183 184 186 201 206 211 254 278 288 293 301 308 314 322 328 334 337 336 335 335 336 335 333 332 331 331 329 326 323 322 322 322 319 317 320 321 319 320 319 318
220 218 203 200 199 199 211 221 241 253 259 267 269 283 298 307 315 321 327 332 334 334 334 334 332 332 331 330 329 328 327 325 322 320 319 318 316 316 315 318 319 318 317
240 229 231 223 214 215 228 226 229 239 251 252 252 263 280 291 302 310 315 322 328 331 332 331 330 329 328 328 328 327 326 324 322 320 317 317 317 314 310 311 314 317 318
253 250 237 235 229 229 225 237 237 235 240 242 251 256 262 273 286 301 310 318 324 329 331 332 330 327 326 327 326 325 324 323 321 320 318 318 317 317 312 309 311 314 317
262 255 255 239 239 241 234 235 238 240 237 238 246 251 257 263 272 288 301 312 321 327 329 329 328 327 325 324 322 323 322 321 321 321 319 317 316 317 317 313 310 315 316
261 270 251 247 244 239 237 239 243 241 238 238 241 249 255 262 269 278 291 303 313 322 327 329 329 327 324 323 320 319 319 319 318 320 320 320 318 317 317 314 314 314 314
266 254 258 253 245 242 242 243 247 244 241 244 245 249 253 257 261 269 278 291 307 316 322 324 325 325 324 321 318 318 318 319 320 320 322 321 317 317 317 317 318 316 316
259 264 256 251 245 239 243 245 247 247 242 246 245 248 252 252 254 262 273 286 299 306 312 317 320 321 319 319 318 318 318 319 320 321 320 322 324 324 323 321 319 317 315
269 263 259 251 248 244 249 252 255 252 249 250 247 247 248 250 251 259 269 279 291 300 307 314 316 320 320 317 317 318 322 322 323 321 319 322 328 325 323 320 317 314 312
275 268 260 253 248 244 244 243 249 243 244 247 249 247 245 248 249 253 262 275 286 293 302 310 316 316 317 319 317 317 320 326 324 326 326 329 326 325 321 316 314 314 315
277 271 266 255 247 240 241 243 260 252 257 253 250 243 242 245 247 249 255 266 277 289 297 304 310 313 316 319 317 318 314 316 314 316 321 323 321 322 316 315 315 316 316
287 277 265 255 249 241 243 245 263 263 269 258 250 249 248 243 243 250 257 265 274 283 289 299 306 311 313 318 322 318 314 311 313 313 311 313 321 317 318 317 317 316 316
295 288 276 266 256 247 238 236 241 247 254 253 246 247 242 241 244 250 257 265 273 282 287 294 302 308 314 315 321 322 321 317 310 307 310 308 313 315 317 317 316 316 318
298 289 280 270 259 252 238 236 240 247 255 257 250 243 241 241 244 247 253 261 271 280 286 290 297 304 311 314 318 319 318 316 314 308 305 308 311 316 317 317 317 318 320
300 290 283 274 265 253 240 239 239 243 249 247 245 244 242 246 246 248 249 254 262 273 279 284 290 296 304 310 314 316 316 314 311 310 307 309 310 314 316 319 319 320 321